TimeCDT,TemperatureF,Dew PointF,Humidity,Sea Level PressureIn,VisibilityMPH,Wind Direction,Wind SpeedMPH,Gust SpeedMPH,PrecipitationIn,Events,Conditions,WindDirDegrees,DateUTC
12:15 AM,62.6,62.6,100,29.81,3.0,SSW,15.0,20.7,0.02,Rain,Rain,210,2013-10-31 05:15:00
12:35 AM,62.6,62.6,100,29.80,4.0,SSW,16.1,21.9,0.05,Rain,Light Rain,210,2013-10-31 05:35:00
12:55 AM,62.6,62.6,100,29.80,7.0,SSW,15.0,25.3,0.05,,Overcast,210,2013-10-31 05:55:00
1:15 AM,62.6,62.6,100,29.80,5.0,SSW,17.3,26.5,N/A,Rain,Rain,210,2013-10-31 06:15:00
1:35 AM,62.6,62.6,100,29.79,4.0,SSW,15.0,23.0,0.13,Rain,Rain,210,2013-10-31 06:35:00
1:55 AM,62.6,62.6,100,29.79,7.0,SW,20.7,27.6,0.14,Rain,Rain,220,2013-10-31 06:55:00
2:15 AM,62.4,61.3,96,29.79,7.0,SW,19.6,27.6,N/A,Rain,Light Rain,220,2013-10-31 07:15:00
2:35 AM,61.7,61.0,97,29.79,5.0,SW,17.3,31.1,0.04,Rain,Rain,220,2013-10-31 07:35:00
2:55 AM,61.2,61.0,99,29.78,5.0,SSW,15.0,25.3,0.11,Rain,Rain,210,2013-10-31 07:55:00
3:15 AM,61.0,60.8,99,29.77,5.0,SSW,13.8,21.9,0.02,Rain,Rain,210,2013-10-31 08:15:00
3:35 AM,60.8,60.6,99,29.75,7.0,SW,16.1,28.8,0.04,Rain,Rain,220,2013-10-31 08:35:00
3:55 AM,60.8,60.8,100,29.74,7.0,SSW,13.8,24.2,0.06,Rain,Light Rain,210,2013-10-31 08:55:00
4:15 AM,60.4,60.4,100,29.73,7.0,SSW,17.3,25.3,0.01,Rain,Rain,200,2013-10-31 09:15:00
4:35 AM,59.9,59.2,97,29.73,7.0,SSW,12.7,20.7,0.01,Rain,Light Rain,210,2013-10-31 09:35:00
4:55 AM,59.5,59.4,99,29.72,5.0,SSW,12.7,18.4,0.05,Rain,Rain,200,2013-10-31 09:55:00
5:15 AM,59.4,59.4,100,29.71,4.0,SSW,9.2,-,0.04,Rain,Rain,200,2013-10-31 10:15:00
5:35 AM,59.4,59.4,100,29.70,5.0,SSW,6.9,-,0.07,Rain,Light Rain,200,2013-10-31 10:35:00
5:55 AM,59.4,59.4,100,29.69,5.0,South,9.2,-,0.07,,Heavy Drizzle,190,2013-10-31 10:55:00
6:15 AM,59.9,59.9,100,29.68,5.0,South,11.5,17.3,0.01,Rain,Light Rain,190,2013-10-31 11:15:00
6:35 AM,60.1,60.1,100,29.67,4.0,SSW,17.3,23.0,0.03,Rain,Rain,210,2013-10-31 11:35:00
6:55 AM,60.4,60.4,100,29.66,7.0,SSW,17.3,23.0,0.05,Rain,Light Rain,210,2013-10-31 11:55:00
7:15 AM,60.3,60.3,100,29.66,7.0,SSW,10.4,20.7,0.01,Rain,Light Rain,200,2013-10-31 12:15:00
7:35 AM,60.1,60.1,100,29.64,5.0,SSW,13.8,17.3,0.03,Rain,Rain,200,2013-10-31 12:35:00
7:55 AM,59.9,59.9,100,29.64,4.0,SSW,11.5,19.6,0.03,Rain,Rain,200,2013-10-31 12:55:00
8:15 AM,59.9,59.9,100,29.64,7.0,SSW,12.7,20.7,N/A,,Drizzle,210,2013-10-31 13:15:00
8:35 AM,60.1,60.1,100,29.64,5.0,SSW,12.7,20.7,0.01,,Heavy Drizzle,210,2013-10-31 13:35:00
8:55 AM,59.9,59.9,100,29.64,4.0,SSW,12.7,18.4,0.02,Rain,Rain,210,2013-10-31 13:55:00
9:15 AM,60.1,60.1,100,29.63,5.0,SSW,13.8,-,N/A,Rain,Light Rain,210,2013-10-31 14:15:00
9:35 AM,60.1,60.1,100,29.62,7.0,SSW,10.4,18.4,0.01,Rain,Light Rain,210,2013-10-31 14:35:00
9:55 AM,60.1,60.1,100,29.61,10.0,SSW,11.5,17.3,0.02,Rain,Light Rain,200,2013-10-31 14:55:00
10:15 AM,60.3,60.3,100,29.60,10.0,SSW,10.4,16.1,N/A,Rain,Light Rain,210,2013-10-31 15:15:00
10:35 AM,60.3,60.3,100,29.59,10.0,South,9.2,-,N/A,Rain,Light Rain,190,2013-10-31 15:35:00
10:55 AM,60.3,60.3,100,29.58,10.0,South,8.1,16.1,0.01,Rain,Rain,190,2013-10-31 15:55:00
11:15 AM,60.3,60.3,100,29.57,10.0,SSW,9.2,-,N/A,Rain,Light Rain,200,2013-10-31 16:15:00
11:35 AM,60.4,60.4,100,29.56,5.0,South,9.2,-,0.01,Rain,Light Rain,190,2013-10-31 16:35:00
11:55 AM,60.3,60.3,100,29.54,3.0,South,10.4,-,0.05,Rain,Rain,180,2013-10-31 16:55:00
12:15 PM,59.5,59.5,100,29.53,3.0,South,15.0,20.7,0.02,Rain,Light Rain,190,2013-10-31 17:15:00
12:35 PM,59.2,59.2,100,29.51,4.0,South,15.0,20.7,0.02,Rain,Rain,190,2013-10-31 17:35:00
12:55 PM,59.0,59.0,100,29.49,4.0,South,12.7,-,0.03,Rain,Rain,190,2013-10-31 17:55:00
1:15 PM,59.0,59.0,100,29.47,7.0,South,9.2,24.2,0.01,Rain,Light Rain,190,2013-10-31 18:15:00
1:35 PM,59.0,59.0,100,29.45,10.0,South,11.5,17.3,0.03,Rain,Rain,190,2013-10-31 18:35:00
1:55 PM,59.0,59.0,100,29.43,10.0,South,11.5,19.6,0.03,,Light Drizzle,190,2013-10-31 18:55:00
2:15 PM,59.0,58.5,98,29.40,10.0,South,12.7,18.4,N/A,Rain,Light Rain,180,2013-10-31 19:15:00
2:35 PM,58.5,58.3,99,29.39,7.0,South,11.5,17.3,N/A,,Drizzle,180,2013-10-31 19:35:00
2:55 PM,58.5,58.5,100,29.37,7.0,South,12.7,20.7,N/A,,Overcast,190,2013-10-31 19:55:00
3:15 PM,58.3,58.3,100,29.36,4.0,South,11.5,20.7,N/A,,Overcast,190,2013-10-31 20:15:00
3:35 PM,58.3,58.3,100,29.34,3.0,South,11.5,23.0,N/A,Rain,Light Rain,180,2013-10-31 20:35:00
3:55 PM,58.5,58.5,100,29.33,4.0,South,11.5,20.7,N/A,Rain,Light Rain,190,2013-10-31 20:55:00
4:15 PM,58.5,58.5,100,29.31,3.0,South,11.5,20.7,N/A,,Light Drizzle,190,2013-10-31 21:15:00
4:35 PM,58.8,58.8,100,29.30,5.0,South,15.0,23.0,N/A,,Overcast,180,2013-10-31 21:35:00
4:55 PM,59.0,59.0,100,29.29,10.0,South,13.8,18.4,N/A,,Overcast,190,2013-10-31 21:55:00
5:15 PM,59.2,59.2,100,29.28,4.0,SSW,9.2,18.4,N/A,Rain,Rain,200,2013-10-31 22:15:00
5:35 PM,59.4,59.4,100,29.25,10.0,South,13.8,19.6,N/A,,Light Drizzle,190,2013-10-31 22:35:00
5:55 PM,59.9,59.9,100,29.25,10.0,SSW,12.7,23.0,N/A,,Overcast,200,2013-10-31 22:55:00
6:15 PM,60.6,60.1,98,29.24,10.0,SSW,12.7,23.0,N/A,,Overcast,200,2013-10-31 23:15:00
6:35 PM,61.0,59.5,95,29.23,10.0,SW,18.4,25.3,N/A,Rain,Light Rain,220,2013-10-31 23:35:00
6:55 PM,61.2,59.0,93,29.24,10.0,SW,19.6,23.0,N/A,,Mostly Cloudy,230,2013-10-31 23:55:00
7:15 PM,60.8,58.1,91,29.25,10.0,SW,15.0,21.9,N/A,,Overcast,230,2013-11-01 00:15:00
7:35 PM,59.4,58.1,96,29.26,5.0,WNW,13.8,21.9,N/A,Rain,Rain,290,2013-11-01 00:35:00
7:55 PM,57.9,57.4,98,29.26,3.0,WNW,10.4,25.3,N/A,,Drizzle,290,2013-11-01 00:55:00
8:15 PM,57.0,54.9,92,29.28,7.0,West,11.5,18.4,N/A,,Overcast,280,2013-11-01 01:15:00
8:35 PM,55.9,55.4,98,29.29,4.0,West,15.0,19.6,0.02,Rain,Rain,270,2013-11-01 01:35:00
8:55 PM,54.7,53.4,96,29.30,7.0,WNW,13.8,26.5,0.07,Rain,Light Rain,290,2013-11-01 01:55:00
9:15 PM,52.0,50.5,95,29.31,7.0,West,15.0,29.9,0.02,Rain,Rain,280,2013-11-01 02:15:00
9:35 PM,51.6,49.8,94,29.32,10.0,West,11.5,19.6,0.04,Rain,Light Rain,280,2013-11-01 02:35:00
9:55 PM,51.6,50.5,96,29.34,10.0,West,12.7,26.5,0.05,Rain,Light Rain,260,2013-11-01 02:55:00
10:15 PM,51.1,50.0,96,29.34,10.0,West,12.7,-,0.01,Rain,Light Rain,260,2013-11-01 03:15:00
10:35 PM,50.5,49.5,96,29.32,10.0,West,10.4,-,0.01,Rain,Rain,270,2013-11-01 03:35:00
10:55 PM,50.4,49.3,96,29.32,10.0,West,12.7,-,0.01,,Overcast,260,2013-11-01 03:55:00
11:15 PM,50.0,49.1,97,29.33,10.0,West,12.7,18.4,N/A,,Overcast,260,2013-11-01 04:15:00
11:35 PM,49.1,47.7,95,29.35,10.0,West,17.3,24.2,N/A,,Overcast,260,2013-11-01 04:35:00
11:55 PM,48.6,46.6,93,29.37,10.0,WSW,19.6,27.6,N/A,,Overcast,250,2013-11-01 04:55:00